Time,TemperatureF,DewpointF,PressureIn,WindDirection,WindDirectionDegrees,WindSpeedMPH,WindSpeedGustMPH,Humidity,HourlyPrecipIn,Conditions,Clouds,dailyrainin,SoftwareType,DateUTC
2013-04-29 00:04:00,47.3,38.0,30.18,ESE,107,0.0,0.0,70,0.00,,,0.00,Wunderground v.1.12,2013-04-29 04:04:00,
2013-04-29 00:05:00,47.3,38.0,30.18,ESE,107,0.0,0.0,70,0.00,,,0.00,Wunderground v.1.12,2013-04-29 04:05:00,
2013-04-29 00:06:00,47.3,38.0,30.18,ESE,107,0.0,0.0,70,0.00,,,0.00,Wunderground v.1.12,2013-04-29 04:06:00,
2013-04-29 00:07:00,47.3,38.4,30.18,ESE,107,0.0,0.0,71,0.00,,,0.00,Wunderground v.1.12,2013-04-29 04:07:00,
2013-04-29 00:09:00,48.3,38.6,30.18,SE,135,0.0,1.0,69,0.00,,,0.00,Wunderground v.1.12,2013-04-29 04:09:00,
2013-04-29 00:15:00,47.0,38.1,30.18,ESE,107,0.0,0.0,71,0.00,,,0.00,Wunderground v.1.12,2013-04-29 04:15:00,
2013-04-29 00:21:00,47.0,37.7,30.18,ESE,107,0.0,0.0,70,0.00,,,0.00,Wunderground v.1.12,2013-04-29 04:21:00,
2013-04-29 00:27:00,47.0,37.7,30.18,ESE,107,0.0,0.0,70,0.00,,,0.00,Wunderground v.1.12,2013-04-29 04:27:00,
2013-04-29 00:33:00,47.3,38.4,30.18,SE,135,0.0,2.0,71,0.00,,,0.00,Wunderground v.1.12,2013-04-29 04:33:00,
2013-04-29 00:39:00,46.5,38.0,30.18,ESE,107,0.0,0.0,72,0.00,,,0.00,Wunderground v.1.12,2013-04-29 04:39:00,
2013-04-29 00:44:00,46.4,37.9,30.18,ESE,107,0.0,0.0,72,0.00,,,0.00,Wunderground v.1.12,2013-04-29 04:44:00,
2013-04-29 00:49:00,46.2,37.7,30.18,ESE,107,0.0,0.0,72,0.00,,,0.00,Wunderground v.1.12,2013-04-29 04:49:00,
2013-04-29 00:55:00,46.4,37.9,30.18,ESE,107,0.0,0.0,72,0.00,,,0.00,Wunderground v.1.12,2013-04-29 04:55:00,
2013-04-29 01:00:00,46.4,37.5,30.18,ESE,107,0.0,0.0,71,0.00,,,0.00,Wunderground v.1.12,2013-04-29 05:00:00,
2013-04-29 01:05:00,46.2,37.3,30.18,ESE,107,0.0,0.0,71,0.00,,,0.00,Wunderground v.1.12,2013-04-29 05:05:00,
2013-04-29 01:10:00,46.1,36.9,30.18,ESE,107,0.0,0.0,70,0.00,,,0.00,Wunderground v.1.12,2013-04-29 05:10:00,
2013-04-29 01:16:00,46.0,37.1,30.18,ESE,107,0.0,0.0,71,0.00,,,0.00,Wunderground v.1.12,2013-04-29 05:16:00,
2013-04-29 01:21:00,45.8,36.9,30.18,ESE,107,0.0,0.0,71,0.00,,,0.00,Wunderground v.1.12,2013-04-29 05:21:00,
2013-04-29 01:27:00,45.8,36.2,30.18,ESE,107,0.0,0.0,69,0.00,,,0.00,Wunderground v.1.12,2013-04-29 05:27:00,
2013-04-29 01:33:00,46.4,37.5,30.18,ESE,113,0.0,1.0,71,0.00,,,0.00,Wunderground v.1.12,2013-04-29 05:33:00,
2013-04-29 01:39:00,45.8,35.1,30.18,ESE,107,0.0,0.0,66,0.00,,,0.00,Wunderground v.1.12,2013-04-29 05:39:00,
2013-04-29 01:44:00,46.0,35.3,30.18,ESE,107,0.0,0.0,66,0.00,,,0.00,Wunderground v.1.12,2013-04-29 05:44:00,
2013-04-29 01:49:00,46.0,35.3,30.18,ESE,107,0.0,0.0,66,0.00,,,0.00,Wunderground v.1.12,2013-04-29 05:49:00,
2013-04-29 01:54:00,45.8,34.7,30.18,ESE,107,0.0,0.0,65,0.00,,,0.00,Wunderground v.1.12,2013-04-29 05:54:00,
2013-04-29 01:59:00,45.8,34.3,30.18,ESE,107,0.0,0.0,64,0.00,,,0.00,Wunderground v.1.12,2013-04-29 05:59:00,
2013-04-29 02:06:00,45.7,34.2,30.18,ESE,107,0.0,0.0,64,0.00,,,0.00,Wunderground v.1.12,2013-04-29 06:06:00,
2013-04-29 02:12:00,45.5,33.6,30.18,ESE,107,0.0,0.0,63,0.00,,,0.00,Wunderground v.1.12,2013-04-29 06:12:00,
2013-04-29 02:18:00,45.2,33.3,30.17,ESE,107,0.0,0.0,63,0.00,,,0.00,Wunderground v.1.12,2013-04-29 06:18:00,
2013-04-29 02:24:00,44.9,32.7,30.17,ESE,107,0.0,0.0,62,0.00,,,0.00,Wunderground v.1.12,2013-04-29 06:24:00,
2013-04-29 02:30:00,44.9,32.7,30.17,ESE,107,0.0,0.0,62,0.00,,,0.00,Wunderground v.1.12,2013-04-29 06:30:00,
2013-04-29 02:36:00,44.8,33.0,30.17,ESE,107,0.0,0.0,63,0.00,,,0.00,Wunderground v.1.12,2013-04-29 06:36:00,
2013-04-29 02:42:00,44.9,33.1,30.17,ESE,107,0.0,0.0,63,0.00,,,0.00,Wunderground v.1.12,2013-04-29 06:42:00,
2013-04-29 02:47:00,44.9,33.1,30.16,ESE,107,0.0,0.0,63,0.00,,,0.00,Wunderground v.1.12,2013-04-29 06:47:00,
2013-04-29 02:53:00,44.8,33.7,30.16,ESE,107,0.0,0.0,65,0.00,,,0.00,Wunderground v.1.12,2013-04-29 06:53:00,
2013-04-29 02:58:00,44.6,34.3,30.16,ESE,107,0.0,0.0,67,0.00,,,0.00,Wunderground v.1.12,2013-04-29 06:58:00,
2013-04-29 03:03:00,44.3,33.7,30.16,ESE,107,0.0,0.0,66,0.00,,,0.00,Wunderground v.1.12,2013-04-29 07:03:00,
2013-04-29 03:09:00,43.9,33.6,30.16,ESE,107,0.0,0.0,67,0.00,,,0.00,Wunderground v.1.12,2013-04-29 07:09:00,
2013-04-29 03:14:00,43.5,33.6,30.16,ESE,107,0.0,0.0,68,0.00,,,0.00,Wunderground v.1.12,2013-04-29 07:14:00,
2013-04-29 03:20:00,43.1,33.3,30.16,ESE,107,0.0,0.0,68,0.00,,,0.00,Wunderground v.1.12,2013-04-29 07:20:00,
2013-04-29 03:25:00,42.9,34.5,30.16,ESE,107,0.0,0.0,72,0.00,,,0.00,Wunderground v.1.12,2013-04-29 07:25:00,
2013-04-29 03:30:00,42.8,34.7,30.16,ESE,107,0.0,0.0,73,0.00,,,0.00,Wunderground v.1.12,2013-04-29 07:30:00,
2013-04-29 03:35:00,42.6,34.5,30.16,ESE,107,0.0,0.0,73,0.00,,,0.00,Wunderground v.1.12,2013-04-29 07:35:00,
2013-04-29 03:41:00,42.6,34.9,30.16,ESE,107,0.0,0.0,74,0.00,,,0.00,Wunderground v.1.12,2013-04-29 07:41:00,
2013-04-29 03:46:00,42.5,35.1,30.15,ESE,107,0.0,0.0,75,0.00,,,0.00,Wunderground v.1.12,2013-04-29 07:46:00,
2013-04-29 03:52:00,42.3,35.3,30.15,ESE,107,0.0,0.0,76,0.00,,,0.00,Wunderground v.1.12,2013-04-29 07:52:00,
2013-04-29 03:58:00,42.2,35.5,30.15,ESE,107,0.0,0.0,77,0.00,,,0.00,Wunderground v.1.12,2013-04-29 07:58:00,
2013-04-29 04:03:00,41.9,35.2,30.16,ESE,107,0.0,0.0,77,0.00,,,0.00,Wunderground v.1.12,2013-04-29 08:03:00,
2013-04-29 04:09:00,41.8,35.1,30.16,ESE,107,0.0,0.0,77,0.00,,,0.00,Wunderground v.1.12,2013-04-29 08:09:00,
2013-04-29 04:15:00,41.6,35.2,30.16,ESE,107,0.0,0.0,78,0.00,,,0.00,Wunderground v.1.12,2013-04-29 08:15:00,
2013-04-29 04:20:00,41.5,35.2,30.16,ESE,107,0.0,0.0,78,0.00,,,0.00,Wunderground v.1.12,2013-04-29 08:20:00,
2013-04-29 04:25:00,41.5,34.8,30.16,ESE,107,0.0,0.0,77,0.00,,,0.00,Wunderground v.1.12,2013-04-29 08:25:00,
2013-04-29 04:31:00,41.3,34.6,30.16,ESE,107,0.0,0.0,77,0.00,,,0.00,Wunderground v.1.12,2013-04-29 08:31:00,
2013-04-29 04:36:00,41.3,34.6,30.16,ESE,107,0.0,0.0,77,0.00,,,0.00,Wunderground v.1.12,2013-04-29 08:36:00,
2013-04-29 04:41:00,41.3,34.6,30.16,ESE,107,0.0,0.0,77,0.00,,,0.00,Wunderground v.1.12,2013-04-29 08:41:00,
2013-04-29 04:47:00,41.1,34.8,30.16,ESE,107,0.0,0.0,78,0.00,,,0.00,Wunderground v.1.12,2013-04-29 08:47:00,
2013-04-29 04:52:00,40.8,34.5,30.16,ESE,107,0.0,0.0,78,0.00,,,0.00,Wunderground v.1.12,2013-04-29 08:52:00,
2013-04-29 04:57:00,40.5,34.5,30.16,ESE,107,0.0,0.0,79,0.00,,,0.00,Wunderground v.1.12,2013-04-29 08:57:00,
2013-04-29 05:03:00,41.3,34.6,30.16,N/A,-737280,0.0,0.0,77,0.00,,,0.00,Wunderground v.1.12,2013-04-29 09:03:00,
2013-04-29 05:08:00,40.2,34.5,30.16,ESE,107,0.0,0.0,80,0.00,,,0.00,Wunderground v.1.12,2013-04-29 09:08:00,
2013-04-29 05:13:00,40.2,34.5,30.16,ESE,107,0.0,0.0,80,0.00,,,0.00,Wunderground v.1.12,2013-04-29 09:13:00,
2013-04-29 05:18:00,40.2,34.5,30.16,ESE,107,0.0,0.0,80,0.00,,,0.00,Wunderground v.1.12,2013-04-29 09:18:00,
2013-04-29 05:24:00,40.1,34.4,30.16,ESE,107,0.0,0.0,80,0.00,,,0.00,Wunderground v.1.12,2013-04-29 09:24:00,
2013-04-29 05:29:00,39.9,34.2,30.16,ESE,107,0.0,0.0,80,0.00,,,0.00,Wunderground v.1.12,2013-04-29 09:29:00,
2013-04-29 05:35:00,39.8,34.4,30.16,ESE,107,0.0,0.0,81,0.00,,,0.00,Wunderground v.1.12,2013-04-29 09:35:00,
2013-04-29 05:40:00,39.8,34.4,30.16,ESE,107,0.0,0.0,81,0.00,,,0.00,Wunderground v.1.12,2013-04-29 09:40:00,
2013-04-29 05:46:00,39.6,34.6,30.16,ESE,107,0.0,0.0,82,0.00,,,0.00,Wunderground v.1.12,2013-04-29 09:46:00,
2013-04-29 05:51:00,39.8,34.8,30.16,ESE,107,0.0,0.0,82,0.00,,,0.00,Wunderground v.1.12,2013-04-29 09:51:00,
2013-04-29 05:57:00,39.9,35.2,30.16,ESE,107,0.0,0.0,83,0.00,,,0.00,Wunderground v.1.12,2013-04-29 09:57:00,
2013-04-29 06:03:00,39.9,34.2,30.16,N/A,-737280,0.0,0.0,80,0.00,,,0.00,Wunderground v.1.12,2013-04-29 10:03:00,
2013-04-29 06:08:00,40.8,36.0,30.17,ESE,107,0.0,0.0,83,0.00,,,0.00,Wunderground v.1.12,2013-04-29 10:08:00,
2013-04-29 06:13:00,41.1,36.0,30.17,ESE,107,0.0,0.0,82,0.00,,,0.00,Wunderground v.1.12,2013-04-29 10:13:00,
2013-04-29 06:19:00,41.2,36.1,30.17,ESE,107,0.0,0.0,82,0.00,,,0.00,Wunderground v.1.12,2013-04-29 10:19:00,
2013-04-29 06:24:00,41.5,36.4,30.17,ESE,107,0.0,0.0,82,0.00,,,0.00,Wunderground v.1.12,2013-04-29 10:24:00,
2013-04-29 06:29:00,41.6,36.5,30.17,ESE,107,0.0,0.0,82,0.00,,,0.00,Wunderground v.1.12,2013-04-29 10:29:00,
2013-04-29 06:34:00,41.8,36.7,30.18,ESE,107,0.0,0.0,82,0.00,,,0.00,Wunderground v.1.12,2013-04-29 10:34:00,
2013-04-29 06:39:00,42.1,37.0,30.18,ESE,107,0.0,0.0,82,0.00,,,0.00,Wunderground v.1.12,2013-04-29 10:39:00,
2013-04-29 06:45:00,42.3,37.2,30.18,ESE,107,0.0,0.0,82,0.00,,,0.00,Wunderground v.1.12,2013-04-29 10:45:00,
2013-04-29 06:50:00,42.6,37.2,30.18,ESE,107,0.0,0.0,81,0.00,,,0.00,Wunderground v.1.12,2013-04-29 10:50:00,
2013-04-29 06:56:00,42.9,37.5,30.18,ESE,107,0.0,0.0,81,0.00,,,0.00,Wunderground v.1.12,2013-04-29 10:56:00,
2013-04-29 07:02:00,43.3,37.9,30.18,ESE,107,0.0,0.0,81,0.00,,,0.00,Wunderground v.1.12,2013-04-29 11:02:00,
2013-04-29 07:08:00,43.8,38.0,30.18,ESE,107,0.0,0.0,80,0.00,,,0.00,Wunderground v.1.12,2013-04-29 11:08:00,
2013-04-29 07:14:00,44.1,38.6,30.18,ESE,107,0.0,0.0,81,0.00,,,0.00,Wunderground v.1.12,2013-04-29 11:14:00,
2013-04-29 07:20:00,44.3,39.2,30.18,ESE,107,0.0,0.0,82,0.00,,,0.00,Wunderground v.1.12,2013-04-29 11:20:00,
2013-04-29 07:25:00,44.8,39.6,30.18,ESE,107,0.0,0.0,82,0.00,,,0.00,Wunderground v.1.12,2013-04-29 11:25:00,
2013-04-29 07:31:00,45.2,40.0,30.19,ESE,107,0.0,0.0,82,0.00,,,0.00,Wunderground v.1.12,2013-04-29 11:31:00,
2013-04-29 07:36:00,45.7,40.2,30.19,ESE,107,0.0,0.0,81,0.00,,,0.00,Wunderground v.1.12,2013-04-29 11:36:00,
2013-04-29 07:43:00,46.4,40.6,30.19,ESE,107,0.0,0.0,80,0.00,,,0.00,Wunderground v.1.12,2013-04-29 11:43:00,
2013-04-29 07:48:00,47.0,41.1,30.19,ESE,107,0.0,0.0,80,0.00,,,0.00,Wunderground v.1.12,2013-04-29 11:48:00,
2013-04-29 07:54:00,47.6,41.4,30.19,ESE,107,0.0,0.0,79,0.00,,,0.00,Wunderground v.1.12,2013-04-29 11:54:00,
2013-04-29 07:59:00,48.0,41.8,30.19,ESE,107,0.0,0.0,79,0.00,,,0.00,Wunderground v.1.12,2013-04-29 11:59:00,
2013-04-29 08:04:00,48.5,42.0,30.19,ESE,107,0.0,0.0,78,0.00,,,0.00,Wunderground v.1.12,2013-04-29 12:04:00,
2013-04-29 08:09:00,49.2,42.6,30.19,ESE,107,0.0,0.0,78,0.00,,,0.00,Wunderground v.1.12,2013-04-29 12:09:00,
2013-04-29 08:17:00,49.8,42.5,30.18,South,180,0.0,2.0,76,0.00,,,0.00,Wunderground v.1.12,2013-04-29 12:17:00,
2013-04-29 08:21:00,50.2,42.6,30.18,South,180,0.0,0.0,75,0.00,,,0.00,Wunderground v.1.12,2013-04-29 12:21:00,
2013-04-29 08:28:00,50.5,42.5,30.18,South,188,1.0,1.0,74,0.00,,,0.00,Wunderground v.1.12,2013-04-29 12:28:00,
2013-04-29 08:33:00,48.2,42.0,30.19,ESE,113,0.0,1.0,79,0.00,,,0.00,Wunderground v.1.12,2013-04-29 12:33:00,
2013-04-29 08:38:00,51.3,42.9,30.18,South,191,0.0,2.0,73,0.00,,,0.00,Wunderground v.1.12,2013-04-29 12:38:00,
2013-04-29 08:43:00,51.3,42.9,30.18,SSW,192,1.0,2.0,73,0.00,,,0.00,Wunderground v.1.12,2013-04-29 12:43:00,
2013-04-29 08:49:00,51.6,42.9,30.18,SSW,192,1.0,1.0,72,0.00,,,0.00,Wunderground v.1.12,2013-04-29 12:49:00,
2013-04-29 08:55:00,52.0,43.6,30.18,SSW,192,0.0,0.0,73,0.00,,,0.00,Wunderground v.1.12,2013-04-29 12:55:00,
2013-04-29 09:00:00,52.3,43.2,30.18,SSW,192,0.0,1.0,71,0.00,,,0.00,Wunderground v.1.12,2013-04-29 13:00:00,
2013-04-29 09:05:00,52.8,43.3,30.18,South,190,0.0,0.0,70,0.00,,,0.00,Wunderground v.1.12,2013-04-29 13:05:00,
2013-04-29 09:10:00,53.1,43.6,30.18,South,191,0.0,0.0,70,0.00,,,0.00,Wunderground v.1.12,2013-04-29 13:10:00,
2013-04-29 09:15:00,53.3,43.4,30.18,South,191,0.0,0.0,69,0.00,,,0.00,Wunderground v.1.12,2013-04-29 13:15:00,
2013-04-29 09:21:00,53.8,43.9,30.18,South,191,0.0,0.0,69,0.00,,,0.00,Wunderground v.1.12,2013-04-29 13:21:00,
2013-04-29 09:27:00,54.5,43.8,30.18,South,191,0.0,0.0,67,0.00,,,0.00,Wunderground v.1.12,2013-04-29 13:27:00,
2013-04-29 09:33:00,52.3,43.2,30.18,SSW,203,0.0,3.0,71,0.00,,,0.00,Wunderground v.1.12,2013-04-29 13:33:00,
2013-04-29 09:38:00,55.3,43.7,30.18,West,277,0.0,3.0,65,0.00,,,0.00,Wunderground v.1.12,2013-04-29 13:38:00,
2013-04-29 09:44:00,55.4,44.2,30.18,West,267,1.0,2.0,66,0.00,,,0.00,Wunderground v.1.12,2013-04-29 13:44:00,
2013-04-29 09:49:00,56.0,45.2,30.18,West,266,2.0,2.0,67,0.00,,,0.00,Wunderground v.1.12,2013-04-29 13:49:00,
2013-04-29 09:56:00,56.5,44.0,30.18,West,266,2.0,3.0,63,0.00,,,0.00,Wunderground v.1.12,2013-04-29 13:56:00,
2013-04-29 10:02:00,56.9,44.8,30.18,West,266,1.0,2.0,64,0.00,,,0.00,Wunderground v.1.12,2013-04-29 14:02:00,
2013-04-29 10:08:00,58.0,45.5,30.18,SSE,154,1.0,1.0,63,0.00,,,0.00,Wunderground v.1.12,2013-04-29 14:08:00,
2013-04-29 10:13:00,58.9,45.5,30.18,SSE,154,0.0,1.0,61,0.00,,,0.00,Wunderground v.1.12,2013-04-29 14:13:00,
2013-04-29 10:20:00,59.8,45.4,30.18,SSE,154,0.0,1.0,59,0.00,,,0.00,Wunderground v.1.12,2013-04-29 14:20:00,
2013-04-29 10:26:00,60.7,45.8,30.18,SSE,153,0.0,1.0,58,0.00,,,0.00,Wunderground v.1.12,2013-04-29 14:26:00,
2013-04-29 10:31:00,60.9,46.0,30.18,East,94,1.0,1.0,58,0.00,,,0.00,Wunderground v.1.12,2013-04-29 14:31:00,
2013-04-29 10:36:00,61.0,45.7,30.18,ESE,109,1.0,4.0,57,0.00,,,0.00,Wunderground v.1.12,2013-04-29 14:36:00,
2013-04-29 10:41:00,61.3,46.8,30.18,SE,132,1.0,1.0,59,0.00,,,0.00,Wunderground v.1.12,2013-04-29 14:41:00,
2013-04-29 10:48:00,61.2,46.8,30.18,East,86,1.0,2.0,59,0.00,,,0.00,Wunderground v.1.12,2013-04-29 14:48:00,
2013-04-29 10:53:00,61.0,46.6,30.18,South,182,1.0,3.0,59,0.00,,,0.00,Wunderground v.1.12,2013-04-29 14:53:00,
2013-04-29 10:58:00,60.4,46.4,30.18,East,99,1.0,4.0,60,0.00,,,0.00,Wunderground v.1.12,2013-04-29 14:58:00,
2013-04-29 11:04:00,60.2,46.7,30.17,East,100,1.0,2.0,61,0.00,,,0.00,Wunderground v.1.12,2013-04-29 15:04:00,
2013-04-29 11:09:00,60.2,46.3,30.17,East,91,2.0,2.0,60,0.00,,,0.00,Wunderground v.1.12,2013-04-29 15:09:00,
2013-04-29 11:14:00,60.9,46.9,30.17,East,98,1.0,1.0,60,0.00,,,0.00,Wunderground v.1.12,2013-04-29 15:14:00,
2013-04-29 11:20:00,61.3,46.4,30.17,East,95,1.0,1.0,58,0.00,,,0.00,Wunderground v.1.12,2013-04-29 15:20:00,
2013-04-29 11:25:00,61.2,45.8,30.17,East,88,2.0,2.0,57,0.00,,,0.00,Wunderground v.1.12,2013-04-29 15:25:00,
2013-04-29 11:31:00,62.1,47.1,30.16,East,101,2.0,2.0,58,0.00,,,0.00,Wunderground v.1.12,2013-04-29 15:31:00,
2013-04-29 11:37:00,62.6,47.6,30.16,East,93,1.0,5.0,58,0.00,,,0.00,Wunderground v.1.12,2013-04-29 15:37:00,
2013-04-29 11:43:00,62.6,47.1,30.16,ENE,65,2.0,4.0,57,0.00,,,0.00,Wunderground v.1.12,2013-04-29 15:43:00,
2013-04-29 11:49:00,62.4,46.0,30.16,ESE,116,2.0,5.0,55,0.00,,,0.00,Wunderground v.1.12,2013-04-29 15:49:00,
2013-04-29 11:55:00,62.1,46.7,30.16,ESE,111,3.0,3.0,57,0.00,,,0.00,Wunderground v.1.12,2013-04-29 15:55:00,
2013-04-29 12:00:00,61.8,46.9,30.16,South,184,3.0,3.0,58,0.00,,,0.00,Wunderground v.1.12,2013-04-29 16:00:00,
2013-04-29 12:06:00,62.3,46.9,30.16,East,89,3.0,5.0,57,0.00,,,0.00,Wunderground v.1.12,2013-04-29 16:06:00,
2013-04-29 12:11:00,61.8,46.9,30.16,East,88,3.0,5.0,58,0.00,,,0.00,Wunderground v.1.12,2013-04-29 16:11:00,
2013-04-29 12:17:00,61.8,47.3,30.16,ESE,106,4.0,5.0,59,0.00,,,0.00,Wunderground v.1.12,2013-04-29 16:17:00,
2013-04-29 12:23:00,63.1,47.1,30.16,East,96,3.0,4.0,56,0.00,,,0.00,Wunderground v.1.12,2013-04-29 16:23:00,
2013-04-29 12:28:00,62.9,47.4,30.16,SE,144,3.0,3.0,57,0.00,,,0.00,Wunderground v.1.12,2013-04-29 16:28:00,
2013-04-29 12:35:00,63.9,47.4,30.15,ESE,103,2.0,3.0,55,0.00,,,0.00,Wunderground v.1.12,2013-04-29 16:35:00,
2013-04-29 12:40:00,63.5,47.5,30.15,ESE,107,3.0,3.0,56,0.00,,,0.00,Wunderground v.1.12,2013-04-29 16:40:00,
2013-04-29 12:45:00,63.7,47.2,30.15,East,90,3.0,5.0,55,0.00,,,0.00,Wunderground v.1.12,2013-04-29 16:45:00,
2013-04-29 12:50:00,63.1,46.7,30.15,ENE,74,3.0,6.0,55,0.00,,,0.00,Wunderground v.1.12,2013-04-29 16:50:00,
2013-04-29 12:55:00,62.7,46.3,30.15,East,101,5.0,5.0,55,0.00,,,0.00,Wunderground v.1.12,2013-04-29 16:55:00,
2013-04-29 13:00:00,62.6,45.7,30.15,ESE,121,5.0,6.0,54,0.00,,,0.00,Wunderground v.1.12,2013-04-29 17:00:00,
2013-04-29 13:06:00,62.9,45.5,30.15,ESE,106,4.0,5.0,53,0.00,,,0.00,Wunderground v.1.12,2013-04-29 17:06:00,
2013-04-29 13:12:00,63.4,44.9,30.15,ESE,112,4.0,8.0,51,0.00,,,0.00,Wunderground v.1.12,2013-04-29 17:12:00,
2013-04-29 13:17:00,63.2,44.8,30.14,East,94,5.0,5.0,51,0.00,,,0.00,Wunderground v.1.12,2013-04-29 17:17:00,
2013-04-29 13:22:00,63.4,44.4,30.14,ENE,68,4.0,4.0,50,0.00,,,0.00,Wunderground v.1.12,2013-04-29 17:22:00,
2013-04-29 13:28:00,63.9,45.9,30.14,East,82,4.0,5.0,52,0.00,,,0.00,Wunderground v.1.12,2013-04-29 17:28:00,
2013-04-29 13:33:00,62.6,45.7,30.15,East,90,4.0,12.0,54,0.00,,,0.00,Wunderground v.1.12,2013-04-29 17:33:00,
2013-04-29 13:38:00,63.9,45.4,30.14,ENE,76,4.0,4.0,51,0.00,,,0.00,Wunderground v.1.12,2013-04-29 17:38:00,
2013-04-29 13:43:00,64.7,46.1,30.14,ESE,121,3.0,7.0,51,0.00,,,0.00,Wunderground v.1.12,2013-04-29 17:43:00,
2013-04-29 13:48:00,64.0,45.5,30.14,East,88,4.0,6.0,51,0.00,,,0.00,Wunderground v.1.12,2013-04-29 17:48:00,
2013-04-29 13:54:00,64.0,45.0,30.14,East,100,3.0,5.0,50,0.00,,,0.00,Wunderground v.1.12,2013-04-29 17:54:00,
2013-04-29 13:59:00,64.0,46.0,30.14,ESE,105,3.0,3.0,52,0.00,,,0.00,Wunderground v.1.12,2013-04-29 17:59:00,
2013-04-29 14:04:00,64.7,45.6,30.14,SSE,162,3.0,3.0,50,0.00,,,0.00,Wunderground v.1.12,2013-04-29 18:04:00,
2013-04-29 14:09:00,64.5,44.4,30.14,ENE,75,3.0,5.0,48,0.00,,,0.00,Wunderground v.1.12,2013-04-29 18:09:00,
2013-04-29 14:14:00,63.7,44.7,30.14,East,95,4.0,4.0,50,0.00,,,0.00,Wunderground v.1.12,2013-04-29 18:14:00,
2013-04-29 14:19:00,63.4,44.4,30.13,East,82,5.0,5.0,50,0.00,,,0.00,Wunderground v.1.12,2013-04-29 18:19:00,
2013-04-29 14:26:00,63.4,44.9,30.13,ENE,65,5.0,5.0,51,0.00,,,0.00,Wunderground v.1.12,2013-04-29 18:26:00,
2013-04-29 14:32:00,63.2,43.7,30.13,East,94,4.0,6.0,49,0.00,,,0.00,Wunderground v.1.12,2013-04-29 18:32:00,
2013-04-29 14:37:00,63.4,44.4,30.13,East,85,4.0,5.0,50,0.00,,,0.00,Wunderground v.1.12,2013-04-29 18:37:00,
2013-04-29 14:43:00,63.7,44.7,30.13,ESE,111,3.0,6.0,50,0.00,,,0.00,Wunderground v.1.12,2013-04-29 18:43:00,
2013-04-29 14:48:00,64.2,44.6,30.13,East,93,3.0,9.0,49,0.00,,,0.00,Wunderground v.1.12,2013-04-29 18:48:00,
2013-04-29 14:54:00,64.2,44.1,30.13,East,100,3.0,6.0,48,0.00,,,0.00,Wunderground v.1.12,2013-04-29 18:54:00,
2013-04-29 15:00:00,63.4,43.9,30.13,East,85,4.0,4.0,49,0.00,,,0.00,Wunderground v.1.12,2013-04-29 19:00:00,
2013-04-29 15:06:00,63.4,44.4,30.13,East,90,4.0,13.0,50,0.00,,,0.00,Wunderground v.1.12,2013-04-29 19:06:00,
2013-04-29 15:12:00,62.0,43.7,30.13,East,101,6.0,6.0,51,0.00,,,0.00,Wunderground v.1.12,2013-04-29 19:12:00,
2013-04-29 15:17:00,61.8,44.0,30.13,ESE,106,6.0,6.0,52,0.00,,,0.00,Wunderground v.1.12,2013-04-29 19:17:00,
2013-04-29 15:23:00,62.3,44.4,30.13,East,84,4.0,5.0,52,0.00,,,0.00,Wunderground v.1.12,2013-04-29 19:23:00,
2013-04-29 15:28:00,62.7,44.3,30.13,South,191,3.0,4.0,51,0.00,,,0.00,Wunderground v.1.12,2013-04-29 19:28:00,
2013-04-29 15:33:00,63.7,43.1,30.12,SSE,153,3.0,5.0,47,0.00,,,0.00,Wunderground v.1.12,2013-04-29 19:33:00,
2013-04-29 15:38:00,63.4,42.2,30.12,ENE,71,3.0,5.0,46,0.00,,,0.00,Wunderground v.1.12,2013-04-29 19:38:00,
2013-04-29 15:44:00,62.9,40.6,30.12,SE,137,3.0,3.0,44,0.00,,,0.00,Wunderground v.1.12,2013-04-29 19:44:00,
2013-04-29 15:50:00,63.2,40.9,30.12,ESE,119,3.0,4.0,44,0.00,,,0.00,Wunderground v.1.12,2013-04-29 19:50:00,
2013-04-29 15:55:00,63.9,39.7,30.12,SSW,200,2.0,4.0,41,0.00,,,0.00,Wunderground v.1.12,2013-04-29 19:55:00,
2013-04-29 16:00:00,63.5,40.0,30.12,ESE,111,3.0,3.0,42,0.00,,,0.00,Wunderground v.1.12,2013-04-29 20:00:00,
2013-04-29 16:06:00,62.9,39.4,30.12,East,90,3.0,3.0,42,0.00,,,0.00,Wunderground v.1.12,2013-04-29 20:06:00,
2013-04-29 16:11:00,62.1,40.5,30.12,SSE,165,3.0,3.0,45,0.00,,,0.00,Wunderground v.1.12,2013-04-29 20:11:00,
2013-04-29 16:16:00,62.3,40.1,30.12,SSE,163,2.0,3.0,44,0.00,,,0.00,Wunderground v.1.12,2013-04-29 20:16:00,
2013-04-29 16:21:00,61.6,40.0,30.12,East,95,3.0,6.0,45,0.00,,,0.00,Wunderground v.1.12,2013-04-29 20:21:00,
2013-04-29 16:27:00,60.7,40.3,30.12,East,89,4.0,6.0,47,0.00,,,0.00,Wunderground v.1.12,2013-04-29 20:27:00,
2013-04-29 16:33:00,63.5,40.0,30.12,East,90,3.0,16.0,42,0.00,,,0.00,Wunderground v.1.12,2013-04-29 20:33:00,
2013-04-29 16:38:00,60.1,40.9,30.12,ESE,103,4.0,5.0,49,0.00,,,0.00,Wunderground v.1.12,2013-04-29 20:38:00,
2013-04-29 16:43:00,60.4,41.1,30.12,East,94,4.0,10.0,49,0.00,,,0.00,Wunderground v.1.12,2013-04-29 20:43:00,
2013-04-29 16:48:00,60.1,40.9,30.12,ENE,72,4.0,8.0,49,0.00,,,0.00,Wunderground v.1.12,2013-04-29 20:48:00,
2013-04-29 16:53:00,60.1,39.2,30.12,East,90,4.0,5.0,46,0.00,,,0.00,Wunderground v.1.12,2013-04-29 20:53:00,
2013-04-29 17:00:00,60.2,38.2,30.12,East,82,4.0,4.0,44,0.00,,,0.00,Wunderground v.1.12,2013-04-29 21:00:00,
2013-04-29 17:06:00,60.2,38.2,30.12,East,82,3.0,6.0,44,0.00,,,0.00,Wunderground v.1.12,2013-04-29 21:06:00,
2013-04-29 17:11:00,60.5,35.4,30.12,East,86,3.0,4.0,39,0.00,,,0.00,Wunderground v.1.12,2013-04-29 21:11:00,
2013-04-29 17:16:00,60.9,35.1,30.12,ESE,117,3.0,3.0,38,0.00,,,0.00,Wunderground v.1.12,2013-04-29 21:16:00,
2013-04-29 17:21:00,61.2,34.0,30.12,East,89,3.0,3.0,36,0.00,,,0.00,Wunderground v.1.12,2013-04-29 21:21:00,
2013-04-29 17:27:00,61.2,33.3,30.12,East,90,3.0,3.0,35,0.00,,,0.00,Wunderground v.1.12,2013-04-29 21:27:00,
2013-04-29 17:33:00,60.4,38.9,30.12,East,90,4.0,15.0,45,0.00,,,0.00,Wunderground v.1.12,2013-04-29 21:33:00,
2013-04-29 17:38:00,60.4,34.0,30.12,SE,128,4.0,6.0,37,0.00,,,0.00,Wunderground v.1.12,2013-04-29 21:38:00,
2013-04-29 17:43:00,60.2,33.8,30.12,SE,124,4.0,4.0,37,0.00,,,0.00,Wunderground v.1.12,2013-04-29 21:43:00,
2013-04-29 17:48:00,60.2,35.1,30.12,East,89,3.0,5.0,39,0.00,,,0.00,Wunderground v.1.12,2013-04-29 21:48:00,
2013-04-29 17:54:00,59.9,35.5,30.12,East,98,3.0,3.0,40,0.00,,,0.00,Wunderground v.1.12,2013-04-29 21:54:00,
2013-04-29 18:00:00,59.9,35.5,30.12,SSW,194,3.0,3.0,40,0.00,,,0.00,Wunderground v.1.12,2013-04-29 22:00:00,
2013-04-29 18:05:00,59.9,34.9,30.12,East,101,3.0,3.0,39,0.00,,,0.00,Wunderground v.1.12,2013-04-29 22:05:00,
2013-04-29 18:11:00,59.6,35.2,30.12,ESE,107,3.0,10.0,40,0.00,,,0.00,Wunderground v.1.12,2013-04-29 22:11:00,
2013-04-29 18:16:00,59.3,35.6,30.12,SSE,150,3.0,3.0,41,0.00,,,0.00,Wunderground v.1.12,2013-04-29 22:16:00,
2013-04-29 18:21:00,59.5,35.8,30.12,ENE,69,2.0,3.0,41,0.00,,,0.00,Wunderground v.1.12,2013-04-29 22:21:00,
2013-04-29 18:28:00,59.6,35.2,30.12,SE,137,1.0,3.0,40,0.00,,,0.00,Wunderground v.1.12,2013-04-29 22:28:00,
2013-04-29 18:33:00,59.6,35.9,30.12,ESE,116,1.0,3.0,41,0.00,,,0.00,Wunderground v.1.12,2013-04-29 22:33:00,
2013-04-29 18:39:00,59.5,35.8,30.12,SSE,153,1.0,1.0,41,0.00,,,0.00,Wunderground v.1.12,2013-04-29 22:39:00,
2013-04-29 18:45:00,59.3,35.6,30.12,South,183,1.0,1.0,41,0.00,,,0.00,Wunderground v.1.12,2013-04-29 22:45:00,
2013-04-29 18:51:00,59.0,35.3,30.13,East,96,1.0,3.0,41,0.00,,,0.00,Wunderground v.1.12,2013-04-29 22:51:00,
2013-04-29 18:56:00,58.6,35.6,30.13,East,90,1.0,2.0,42,0.00,,,0.00,Wunderground v.1.12,2013-04-29 22:56:00,
2013-04-29 19:03:00,59.5,35.1,30.12,East,90,2.0,13.0,40,0.00,,,0.00,Wunderground v.1.12,2013-04-29 23:03:00,
2013-04-29 19:08:00,58.0,35.6,30.13,ENE,73,1.0,5.0,43,0.00,,,0.00,Wunderground v.1.12,2013-04-29 23:08:00,
2013-04-29 19:13:00,57.6,35.2,30.13,ENE,61,1.0,5.0,43,0.00,,,0.00,Wunderground v.1.12,2013-04-29 23:13:00,
2013-04-29 19:18:00,57.2,35.5,30.12,East,101,2.0,2.0,44,0.00,,,0.00,Wunderground v.1.12,2013-04-29 23:18:00,
2013-04-29 19:24:00,56.9,35.2,30.12,East,96,1.0,3.0,44,0.00,,,0.00,Wunderground v.1.12,2013-04-29 23:24:00,
2013-04-29 19:29:00,56.5,35.4,30.12,ESE,102,1.0,3.0,45,0.00,,,0.00,Wunderground v.1.12,2013-04-29 23:29:00,
2013-04-29 19:34:00,56.2,35.1,30.13,SE,132,1.0,1.0,45,0.00,,,0.00,Wunderground v.1.12,2013-04-29 23:34:00,
2013-04-29 19:40:00,56.0,34.9,30.13,East,90,1.0,1.0,45,0.00,,,0.00,Wunderground v.1.12,2013-04-29 23:40:00,
2013-04-29 19:47:00,55.7,35.8,30.13,ESE,111,1.0,1.0,47,0.00,,,0.00,Wunderground v.1.12,2013-04-29 23:47:00,
2013-04-29 19:53:00,55.4,35.5,30.13,ESE,108,0.0,1.0,47,0.00,,,0.00,Wunderground v.1.12,2013-04-29 23:53:00,
2013-04-29 19:59:00,55.1,35.7,30.13,East,89,0.0,2.0,48,0.00,,,0.00,Wunderground v.1.12,2013-04-29 23:59:00,
2013-04-29 20:04:00,54.8,36.0,30.13,East,88,0.0,0.0,49,0.00,,,0.00,Wunderground v.1.12,2013-04-30 00:04:00,
2013-04-29 20:10:00,54.7,36.4,30.13,SSE,148,0.0,1.0,50,0.00,,,0.00,Wunderground v.1.12,2013-04-30 00:10:00,
2013-04-29 20:17:00,54.7,35.9,30.13,SE,137,0.0,0.0,49,0.00,,,0.00,Wunderground v.1.12,2013-04-30 00:17:00,
2013-04-29 20:23:00,54.7,36.4,30.13,South,174,0.0,1.0,50,0.00,,,0.00,Wunderground v.1.12,2013-04-30 00:23:00,
2013-04-29 20:29:00,54.7,36.9,30.13,SE,146,0.0,1.0,51,0.00,,,0.00,Wunderground v.1.12,2013-04-30 00:29:00,
2013-04-29 20:34:00,54.5,36.7,30.14,ESE,118,0.0,0.0,51,0.00,,,0.00,Wunderground v.1.12,2013-04-30 00:34:00,
2013-04-29 20:40:00,54.4,36.6,30.14,ESE,118,0.0,0.0,51,0.00,,,0.00,Wunderground v.1.12,2013-04-30 00:40:00,
2013-04-29 20:45:00,54.1,36.9,30.15,ESE,118,0.0,0.0,52,0.00,,,0.00,Wunderground v.1.12,2013-04-30 00:45:00,
2013-04-29 20:51:00,53.8,37.1,30.15,ESE,119,0.0,0.0,53,0.00,,,0.00,Wunderground v.1.12,2013-04-30 00:51:00,
2013-04-29 20:56:00,53.5,37.3,30.15,ESE,119,0.0,0.0,54,0.00,,,0.00,Wunderground v.1.12,2013-04-30 00:56:00,
2013-04-29 21:01:00,53.2,37.0,30.15,ESE,119,0.0,0.0,54,0.00,,,0.00,Wunderground v.1.12,2013-04-30 01:01:00,
2013-04-29 21:06:00,52.9,37.2,30.15,ESE,119,0.0,0.0,55,0.00,,,0.00,Wunderground v.1.12,2013-04-30 01:06:00,
2013-04-29 21:13:00,52.5,37.2,30.15,ESE,119,0.0,0.0,56,0.00,,,0.00,Wunderground v.1.12,2013-04-30 01:13:00,
2013-04-29 21:18:00,52.3,37.1,30.15,ESE,119,0.0,0.0,56,0.00,,,0.00,Wunderground v.1.12,2013-04-30 01:18:00,
2013-04-29 21:23:00,52.0,36.8,30.15,ESE,119,0.0,0.0,56,0.00,,,0.00,Wunderground v.1.12,2013-04-30 01:23:00,
2013-04-29 21:28:00,52.0,36.8,30.15,ESE,119,0.0,0.0,56,0.00,,,0.00,Wunderground v.1.12,2013-04-30 01:28:00,
2013-04-29 21:34:00,51.9,37.1,30.16,ESE,119,0.0,0.0,57,0.00,,,0.00,Wunderground v.1.12,2013-04-30 01:34:00,
2013-04-29 21:39:00,51.7,36.9,30.16,ESE,119,0.0,0.0,57,0.00,,,0.00,Wunderground v.1.12,2013-04-30 01:39:00,
2013-04-29 21:45:00,51.4,37.1,30.16,ESE,119,0.0,0.0,58,0.00,,,0.00,Wunderground v.1.12,2013-04-30 01:45:00,
2013-04-29 21:50:00,51.1,37.3,30.16,ESE,119,0.0,0.0,59,0.00,,,0.00,Wunderground v.1.12,2013-04-30 01:50:00,
2013-04-29 21:55:00,51.0,37.2,30.16,ESE,119,0.0,0.0,59,0.00,,,0.00,Wunderground v.1.12,2013-04-30 01:55:00,
2013-04-29 22:01:00,50.8,37.0,30.16,ESE,119,0.0,0.0,59,0.00,,,0.00,Wunderground v.1.12,2013-04-30 02:01:00,
2013-04-29 22:07:00,50.5,37.1,30.16,ESE,119,0.0,0.0,60,0.00,,,0.00,Wunderground v.1.12,2013-04-30 02:07:00,
2013-04-29 22:13:00,50.4,37.0,30.16,ESE,119,0.0,0.0,60,0.00,,,0.00,Wunderground v.1.12,2013-04-30 02:13:00,
2013-04-29 22:19:00,50.1,37.2,30.16,ESE,119,0.0,0.0,61,0.00,,,0.00,Wunderground v.1.12,2013-04-30 02:19:00,
2013-04-29 22:24:00,49.6,37.5,30.16,ESE,119,0.0,0.0,63,0.00,,,0.00,Wunderground v.1.12,2013-04-30 02:24:00,
2013-04-29 22:30:00,49.2,37.5,30.16,ESE,119,0.0,0.0,64,0.00,,,0.00,Wunderground v.1.12,2013-04-30 02:30:00,
2013-04-29 22:36:00,48.9,37.6,30.16,ESE,119,0.0,0.0,65,0.00,,,0.00,Wunderground v.1.12,2013-04-30 02:36:00,
2013-04-29 22:41:00,48.5,37.3,30.16,ESE,119,0.0,0.0,65,0.00,,,0.00,Wunderground v.1.12,2013-04-30 02:41:00,
2013-04-29 22:46:00,48.3,37.1,30.16,ESE,119,0.0,0.0,65,0.00,,,0.00,Wunderground v.1.12,2013-04-30 02:46:00,
2013-04-29 22:53:00,48.0,37.2,30.16,ESE,119,0.0,0.0,66,0.00,,,0.00,Wunderground v.1.12,2013-04-30 02:53:00,
2013-04-29 22:58:00,47.9,37.5,30.16,ESE,119,0.0,0.0,67,0.00,,,0.00,Wunderground v.1.12,2013-04-30 02:58:00,
2013-04-29 23:04:00,48.0,36.4,30.16,ESE,119,0.0,0.0,64,0.00,,,0.00,Wunderground v.1.12,2013-04-30 03:04:00,
2013-04-29 23:08:00,48.0,36.4,30.16,ESE,119,0.0,0.0,64,0.00,,,0.00,Wunderground v.1.12,2013-04-30 03:08:00,
2013-04-29 23:15:00,47.9,36.7,30.16,ESE,119,0.0,0.0,65,0.00,,,0.00,Wunderground v.1.12,2013-04-30 03:15:00,
2013-04-29 23:20:00,47.7,36.1,30.17,ESE,119,0.0,0.0,64,0.00,,,0.00,Wunderground v.1.12,2013-04-30 03:20:00,
2013-04-29 23:26:00,47.7,35.3,30.17,ESE,119,0.0,0.0,62,0.00,,,0.00,Wunderground v.1.12,2013-04-30 03:26:00,
2013-04-29 23:31:00,47.7,34.9,30.17,ESE,119,0.0,0.0,61,0.00,,,0.00,Wunderground v.1.12,2013-04-30 03:31:00,
2013-04-29 23:36:00,47.7,34.9,30.17,ESE,119,0.0,0.0,61,0.00,,,0.00,Wunderground v.1.12,2013-04-30 03:36:00,
2013-04-29 23:41:00,47.7,34.5,30.17,ESE,119,0.0,0.0,60,0.00,,,0.00,Wunderground v.1.12,2013-04-30 03:41:00,
2013-04-29 23:48:00,47.6,34.0,30.17,ESE,119,0.0,0.0,59,0.00,,,0.00,Wunderground v.1.12,2013-04-30 03:48:00,
2013-04-29 23:53:00,47.6,34.8,30.17,ESE,119,0.0,0.0,61,0.00,,,0.00,Wunderground v.1.12,2013-04-30 03:53:00,
2013-04-29 23:58:00,47.3,34.1,30.17,ESE,119,0.0,0.0,60,0.00,,,0.00,Wunderground v.1.12,2013-04-30 03:58:00,